Theta_e
340 340 339 338 339 338 338 338 336 334 326 327 334 335 334 334 334 333 334 335 335 336 338 337 336 336 336 336 337 337 337 337 338 338 338 338 338 338 337 335 335 335 335 334 333 332 332 332 333 335 335 336 336 336 336 336 337 337 336 336 335 335 336 335 334 333 333 333 334 333 331 330 328 327 326 325 327 329 330 330 330 331 332 332 332
340 339 339 338 338 337 336 338 336 332 327 330 335 334 334 334 333 334 333 333 334 336 335 335 335 336 337 337 337 337 336 337 338 338 338 338 337 336 335 335 336 335 333 332 332 332 332 332 333 333 335 335 334 334 334 335 335 335 334 333 333 333 334 333 333 333 333 333 333 333 332 332 332 331 330 328 327 328 329 329 329 330 331 331 331
339 339 339 338 338 338 336 339 335 327 327 331 334 334 334 334 333 333 334 333 333 336 335 334 335 336 337 337 337 336 336 337 337 337 337 336 335 334 334 334 334 333 331 332 332 332 332 332 332 332 333 333 333 333 332 333 333 333 332 332 332 332 333 332 332 332 331 332 332 332 332 332 332 332 332 331 329 329 330 329 330 330 330 329 330
338 338 339 339 338 337 337 339 332 323 324 328 332 334 334 334 333 332 333 333 334 336 337 337 337 337 338 337 336 336 335 335 336 335 335 334 333 333 332 332 332 332 331 331 331 331 331 331 331 331 331 331 331 332 332 332 331 331 331 331 331 331 331 331 331 329 330 332 332 332 332 333 332 332 332 332 331 330 330 330 331 331 329 329 330
338 338 340 340 338 337 337 337 329 322 321 323 331 334 333 333 332 332 332 333 334 335 336 336 337 337 336 336 335 335 334 334 334 335 334 333 333 332 331 331 332 332 331 330 331 330 330 331 331 331 330 330 330 331 331 331 330 329 330 330 330 330 329 329 328 328 330 332 333 333 333 333 333 332 331 330 330 330 330 330 331 331 330 330 330
338 339 340 340 340 337 336 333 325 321 319 321 331 334 333 333 332 332 332 333 333 333 335 336 337 335 335 335 334 334 333 332 332 333 334 333 333 332 331 331 332 332 331 330 331 330 330 330 330 330 330 330 330 331 330 330 330 329 328 328 328 328 327 327 327 328 331 332 333 333 333 333 333 332 331 330 330 331 331 331 330 330 329 329 329
338 339 340 340 340 337 334 330 323 319 317 320 328 333 333 332 332 332 331 332 332 333 335 335 335 334 334 334 333 333 331 329 328 331 334 333 332 331 330 331 332 332 332 331 330 331 330 330 330 330 330 330 329 330 330 330 330 328 327 326 325 326 326 327 328 331 332 333 333 333 333 333 333 332 332 331 331 330 330 329 328 328 328 327 327
339 339 340 340 340 337 332 327 322 318 320 323 325 330 333 332 332 332 331 332 332 334 334 334 335 334 334 334 333 333 332 330 329 331 332 332 331 330 330 331 332 332 332 330 329 330 329 329 329 328 329 329 329 329 329 329 328 327 326 324 324 325 327 328 330 331 332 332 332 333 333 333 333 333 332 331 330 328 327 327 327 327 326 326 326
340 340 340 340 339 336 330 325 322 317 321 326 327 328 332 332 332 332 331 332 333 334 334 334 336 336 335 334 333 332 331 329 329 331 331 330 330 329 329 330 331 332 332 331 330 330 330 330 329 329 329 328 329 328 329 329 327 328 326 324 324 326 327 329 330 331 331 331 332 332 332 332 332 331 331 330 329 328 327 327 326 327 326 326 326
340 340 340 340 339 336 330 325 321 318 319 323 327 329 330 332 332 332 332 331 332 333 334 335 335 335 334 333 332 331 328 328 329 330 330 329 329 329 329 329 331 332 332 331 331 330 330 330 328 328 329 327 327 327 328 328 327 328 326 325 325 326 328 329 329 330 330 330 331 331 331 331 331 330 329 328 327 326 325 324 324 325 326 327 327
340 340 340 340 339 336 331 326 321 319 317 319 324 326 328 331 333 332 332 331 332 332 333 333 333 333 332 332 331 330 327 327 330 329 329 329 328 329 329 330 330 331 331 332 332 330 329 328 327 328 328 327 327 327 328 327 327 327 325 326 326 327 328 328 328 328 328 328 328 328 328 328 329 328 327 326 326 325 324 324 324 325 325 326 325
340 340 340 340 338 337 334 327 322 319 319 320 320 321 324 329 332 332 332 331 331 333 332 331 331 331 331 330 329 330 327 326 328 328 328 328 328 329 329 330 331 331 331 332 332 331 330 328 327 328 328 327 327 327 328 327 326 326 326 326 327 328 327 327 328 328 328 328 328 328 328 328 328 327 326 326 326 325 324 324 324 324 324 324 323
340 339 339 339 338 337 335 329 323 321 320 320 317 316 319 324 329 331 332 332 332 333 331 329 330 330 329 329 330 331 329 326 326 327 328 328 328 329 329 330 330 330 331 332 332 331 330 327 327 328 328 327 326 327 328 327 327 326 327 327 328 327 325 327 328 328 328 329 329 329 328 328 327 326 326 326 325 324 324 323 323 322 322 321 321
340 339 339 340 339 337 336 332 324 322 321 319 317 314 315 319 325 329 331 331 332 332 331 330 329 329 328 330 332 332 331 327 325 326 327 328 328 329 329 330 329 330 331 331 331 331 329 326 327 327 326 326 327 327 328 327 327 326 327 327 326 325 325 327 328 328 328 329 329 328 328 327 326 325 325 325 324 324 323 322 321 320 320 320 320
339 339 339 339 340 337 336 334 327 323 322 319 317 315 314 315 320 324 327 330 331 331 331 330 329 329 329 331 332 332 331 328 325 324 327 329 329 327 328 329 329 330 331 331 330 330 328 326 326 326 326 326 327 327 327 327 326 326 326 326 325 324 326 327 327 327 327 328 328 328 327 327 325 324 324 325 324 323 321 320 319 319 320 319 319
339 338 339 339 339 338 337 336 331 326 323 322 319 317 315 314 316 318 321 327 331 331 330 330 329 329 329 331 332 332 331 329 325 323 326 329 329 326 327 329 329 330 331 330 330 329 327 325 326 327 326 326 327 326 326 326 325 326 326 325 324 324 326 326 326 326 326 327 327 327 326 326 325 324 324 324 323 321 320 320 319 319 319 319 318
339 338 339 338 339 339 337 337 333 327 324 323 322 319 317 315 314 314 317 323 328 329 329 329 328 327 327 329 331 331 330 328 325 323 325 329 329 327 326 327 329 330 330 330 330 330 327 325 326 327 326 327 327 326 325 325 325 325 325 325 325 324 324 325 326 325 325 325 325 325 325 324 324 324 324 323 321 320 319 319 319 319 318 318 317
338 338 338 338 339 339 338 337 334 331 327 325 324 322 319 316 314 313 314 318 324 327 327 328 328 326 325 327 329 328 327 326 326 324 324 328 329 327 325 325 328 330 330 330 330 329 326 324 326 327 327 327 327 326 325 325 325 325 325 325 325 324 323 324 325 324 324 325 324 324 323 323 322 322 322 321 320 320 319 318 318 318 318 318 317
338 338 338 338 338 338 338 338 336 335 332 330 328 324 321 319 315 314 313 315 321 324 324 326 327 325 323 325 325 325 325 324 325 324 323 328 328 328 326 324 325 328 329 329 329 328 325 324 325 326 327 327 327 326 325 325 325 325 325 325 324 324 324 324 324 324 324 324 323 323 322 321 321 321 320 320 320 320 319 319 318 318 317 317 316
337 337 337 338 338 338 338 337 337 336 334 334 332 328 324 321 318 315 314 314 316 320 321 323 325 324 322 323 323 323 324 322 323 324 323 327 328 328 327 325 323 325 327 328 327 326 324 323 324 325 326 326 327 326 326 326 325 325 326 325 324 324 324 324 324 323 323 323 322 322 321 321 322 321 320 319 319 319 319 318 318 317 317 316 316
337 336 337 338 338 338 338 338 337 337 336 335 334 331 327 323 321 317 315 314 314 316 318 321 322 323 322 322 324 326 326 325 324 324 322 325 327 327 327 325 323 323 325 326 326 325 323 323 324 324 325 325 326 326 326 326 325 325 325 325 324 324 324 323 323 323 323 323 323 322 321 320 321 320 319 318 318 318 318 317 317 316 316 316 315
336 336 337 337 338 338 338 338 337 337 337 336 334 333 330 327 325 321 318 316 314 315 316 319 319 321 322 322 326 328 328 327 326 324 323 323 325 326 326 325 324 322 323 325 325 324 324 323 323 324 325 325 326 326 326 326 326 326 325 324 324 323 323 323 323 323 323 323 323 322 320 320 320 320 318 318 318 318 317 317 316 316 316 315 315
336 336 336 336 337 338 338 338 338 337 336 336 335 334 332 331 330 326 323 320 317 315 315 317 317 319 320 321 326 326 325 327 324 323 322 320 321 323 324 324 324 323 321 322 324 324 324 323 323 323 324 325 325 325 325 326 326 325 325 324 324 323 323 323 323 323 324 324 323 321 319 319 320 319 318 318 318 317 317 316 316 315 315 315 315
336 336 336 336 336 337 338 337 337 337 336 335 335 335 334 333 332 330 328 325 320 317 316 316 316 317 318 322 324 321 322 323 321 321 322 320 319 318 320 321 323 322 319 322 323 323 323 322 322 323 324 324 325 325 325 325 325 325 325 324 324 323 322 322 323 323 323 324 323 320 320 320 320 318 318 318 317 317 316 315 315 315 314 314 314
336 336 336 336 336 336 337 337 336 336 336 335 335 335 334 334 333 332 331 328 324 320 319 317 317 317 318 321 320 317 320 322 319 320 323 323 320 317 318 320 322 321 320 322 323 323 323 322 323 323 324 324 324 324 324 324 324 324 324 324 324 323 322 322 323 324 323 324 322 320 321 321 320 318 318 318 317 316 316 315 315 314 314 314 313
336 336 336 336 336 336 336 336 336 335 336 335 335 335 335 334 333 332 332 330 327 324 322 320 318 317 317 318 317 317 319 321 319 319 321 322 321 320 319 318 319 319 319 322 323 322 322 323 323 323 323 323 323 323 323 324 324 324 324 324 324 323 323 322 323 323 323 323 322 321 321 320 319 318 318 318 317 316 315 315 314 314 313 313 313
336 336 336 336 336 336 337 336 336 336 336 335 335 335 335 335 334 333 332 331 330 328 326 323 321 320 318 317 317 318 319 320 319 318 318 320 322 321 319 316 316 317 318 320 321 320 321 321 322 321 321 321 321 321 322 323 323 324 324 323 323 323 323 323 323 323 322 323 321 320 320 320 319 318 318 318 317 316 315 314 314 314 313 313 312
336 336 336 336 336 336 337 336 336 336 336 335 335 335 335 335 335 333 332 331 331 330 329 327 325 323 320 319 318 319 320 320 318 317 317 319 321 319 317 315 315 314 314 317 319 320 320 320 320 320 320 320 320 320 320 322 323 323 323 323 323 323 323 323 323 323 322 322 322 320 319 319 318 318 318 317 317 316 315 314 314 313 313 313 312
336 336 336 336 336 336 336 336 336 336 336 336 335 335 335 335 334 334 333 332 331 331 330 329 328 326 324 322 320 319 320 320 319 318 318 318 319 316 316 315 314 312 312 314 316 320 321 320 320 319 319 319 319 319 319 320 321 321 322 322 322 322 323 323 322 322 321 321 321 321 319 318 318 318 317 317 317 317 316 315 314 314 313 312 312
336 336 336 336 336 336 336 336 336 336 336 336 336 335 335 335 334 334 334 333 332 331 330 330 330 329 328 326 323 321 320 320 319 319 318 318 318 316 316 316 313 312 311 312 312 317 320 320 320 319 319 319 319 319 319 319 319 319 320 321 321 322 322 322 322 322 321 321 321 321 319 318 318 318 317 316 317 318 316 316 315 314 313 312 312
336 335 336 336 336 336 336 336 336 336 336 336 336 336 336 335 335 334 334 334 333 332 331 330 330 329 329 329 327 325 322 321 321 320 319 318 318 317 317 317 315 313 312 311 310 312 317 319 319 319 319 320 320 319 319 320 320 319 319 320 320 321 322 322 322 321 321 321 320 321 320 319 318 318 317 316 316 318 316 316 316 314 313 313 312
335 335 335 335 335 336 336 336 336 336 336 336 336 336 336 335 335 334 334 334 333 333 331 331 330 329 329 330 329 328 326 324 323 323 322 320 319 318 318 317 317 315 313 312 310 309 312 315 317 318 318 319 319 319 319 320 320 320 319 319 320 320 321 321 321 321 321 321 320 320 320 320 319 318 317 316 316 317 317 316 315 314 313 313 312
334 334 335 334 335 335 335 336 336 336 335 336 336 335 336 335 335 334 334 334 333 333 332 331 330 329 329 329 330 329 328 327 326 326 325 323 322 321 319 318 317 317 316 314 312 310 309 311 314 316 317 318 319 319 319 320 320 320 319 319 320 320 320 321 321 321 321 321 320 320 320 320 320 318 318 317 316 317 317 316 316 315 314 313 313
334 334 334 334 334 334 334 335 335 335 335 335 335 335 335 335 335 335 334 334 333 333 332 332 331 330 329 329 329 329 329 328 328 328 327 326 326 324 323 321 319 318 317 316 314 312 311 311 312 314 316 317 318 319 319 320 320 319 319 318 318 319 320 320 321 321 321 321 320 319 319 319 319 319 318 317 316 316 316 316 316 315 314 314 313
334 334 334 334 334 333 334 334 334 334 334 335 334 335 335 334 335 335 334 334 333 333 332 332 331 330 329 329 329 329 329 329 329 329 328 328 327 327 327 324 323 321 319 317 315 314 313 312 311 313 315 315 317 318 318 319 319 318 318 317 317 318 319 320 321 321 321 321 320 319 319 319 319 319 319 318 317 316 316 316 316 315 314 314 313
333 333 333 333 334 334 334 333 333 334 333 334 333 334 334 334 334 334 334 334 333 333 332 332 331 330 329 329 330 331 331 330 330 330 329 329 328 328 329 328 327 325 322 319 317 315 314 313 312 312 314 313 315 315 315 316 317 316 316 316 316 315 317 319 320 321 321 321 320 319 319 319 319 318 318 318 317 317 316 315 315 315 314 314 314
332 333 333 333 334 334 333 333 333 333 333 333 333 333 334 334 334 334 334 334 333 333 332 333 332 331 331 330 330 330 331 331 331 331 331 330 329 329 329 329 329 327 325 323 321 319 318 316 314 313 313 313 314 313 313 314 314 314 315 315 315 314 314 316 318 319 320 320 320 320 319 319 319 318 318 317 317 317 316 316 315 315 314 314 314
330 331 332 332 333 333 333 333 333 333 333 333 333 333 333 333 334 333 334 334 334 334 333 333 333 332 332 331 330 329 330 330 331 331 331 331 330 329 329 329 329 328 327 326 325 324 322 320 319 318 316 314 314 315 315 315 314 314 314 314 315 314 315 316 318 318 318 319 320 320 319 319 318 319 318 317 317 317 317 316 315 315 314 313 313
328 328 330 330 331 332 332 332 333 333 333 333 333 332 332 332 332 333 333 333 334 334 334 333 333 333 333 333 332 330 330 330 330 329 330 331 331 330 329 328 329 328 327 326 326 325 323 323 322 321 318 315 314 314 315 314 314 313 313 314 314 314 315 316 317 317 317 318 318 319 319 319 319 319 319 318 317 317 317 316 316 315 314 313 313
324 325 327 327 329 330 331 331 331 332 332 333 332 332 332 332 332 332 332 333 333 334 335 334 334 334 333 333 333 332 331 330 329 329 330 331 330 330 330 329 328 328 326 324 325 326 325 325 324 321 318 315 315 314 313 313 313 312 312 312 313 313 314 315 315 315 316 317 317 318 318 319 319 319 319 318 318 317 317 317 316 315 314 314 313
317 321 324 325 326 327 329 330 330 331 331 332 332 332 332 332 331 331 331 331 332 332 333 334 334 334 333 332 332 332 331 330 330 331 331 331 329 329 330 330 329 328 327 326 326 327 327 325 323 321 317 315 315 315 314 312 311 311 311 311 311 312 312 313 314 313 313 314 316 316 316 317 318 318 319 319 318 318 317 317 317 316 315 314 313
311 314 317 320 324 326 327 328 329 329 330 331 332 332 332 332 332 331 332 331 331 331 332 333 333 333 333 333 331 331 330 331 331 331 331 331 330 329 329 330 330 329 329 328 326 325 325 324 322 320 318 317 316 316 314 311 310 310 310 310 310 311 311 311 311 312 311 312 313 314 315 315 315 316 317 318 318 318 317 317 317 317 316 315 314
308 309 310 313 318 321 323 326 327 328 328 329 330 331 331 332 332 332 332 332 332 331 330 331 332 333 334 334 333 332 330 330 330 329 329 329 329 328 328 328 329 329 328 327 326 324 324 324 322 320 319 317 315 314 314 312 311 310 309 309 311 312 313 312 311 312 313 312 311 312 313 313 314 315 316 316 317 317 317 317 317 317 317 316 315
307 307 307 309 311 314 317 321 324 326 327 328 328 330 331 331 331 331 332 332 332 331 331 331 331 331 331 332 333 333 333 331 330 329 329 329 328 327 327 328 328 328 327 326 325 325 325 324 323 321 318 315 314 315 315 314 311 311 310 310 309 310 313 315 314 314 314 313 312 311 311 312 312 313 315 315 316 317 317 317 317 317 317 316 315
306 306 307 307 308 309 311 314 317 321 323 325 327 328 329 330 330 330 331 331 330 329 330 332 332 331 331 331 331 332 332 332 332 331 331 331 330 329 328 329 329 329 327 325 325 326 325 324 323 322 320 318 317 316 315 313 311 311 312 312 311 311 313 315 315 315 314 312 312 312 312 312 312 312 313 314 315 316 316 317 317 316 316 316 316
305 306 306 306 307 308 308 309 312 315 319 322 324 326 327 328 329 330 330 330 330 329 329 330 330 331 331 332 332 332 331 331 330 330 331 331 331 330 330 330 329 329 327 326 327 326 324 322 321 322 323 322 320 316 314 314 312 310 311 312 314 316 315 314 313 315 315 312 312 312 313 313 312 311 312 312 313 314 315 316 316 316 316 316 315
306 306 306 306 307 307 308 309 311 314 316 318 322 325 326 327 328 328 329 330 329 329 329 329 329 329 329 330 330 330 330 330 330 331 331 331 330 329 329 329 328 327 327 327 326 324 322 321 321 323 324 322 319 316 314 314 311 309 309 310 311 313 313 312 312 315 316 314 313 312 313 313 312 311 311 312 312 312 313 314 314 315 315 315 315
308 307 307 307 307 307 308 310 312 314 315 317 321 324 325 326 327 327 328 328 328 329 329 328 328 328 328 328 328 328 328 329 330 330 330 330 331 330 329 329 328 327 327 327 327 325 324 324 323 323 322 319 318 317 316 315 312 310 310 309 309 310 309 309 310 310 311 312 312 312 312 313 312 312 312 312 312 312 312 313 314 314 314 313 314
309 308 308 308 308 309 310 312 314 316 317 319 322 324 324 325 326 327 327 327 327 328 328 328 327 327 327 327 327 327 327 328 327 328 328 329 331 331 330 329 329 328 327 327 327 326 325 324 322 321 321 320 319 318 317 316 314 313 312 309 308 308 307 307 308 307 307 308 310 311 311 312 311 312 312 313 313 313 313 313 313 313 312 312 312
310 310 311 311 312 312 314 315 317 318 319 321 322 323 324 325 325 326 327 327 327 326 326 326 326 326 326 325 326 326 326 326 326 326 326 327 328 329 329 329 328 328 328 327 326 325 325 325 324 323 322 322 321 319 317 316 315 314 313 311 310 308 306 307 307 307 306 306 307 308 309 310 310 311 312 313 313 313 313 312 312 312 311 311 312
312 313 314 314 315 316 317 318 319 320 321 321 322 323 323 324 325 325 326 326 326 326 325 325 325 325 324 324 324 324 325 325 325 325 325 325 326 326 327 327 327 327 327 327 326 326 325 325 325 324 323 322 321 320 318 316 315 314 313 312 311 310 309 310 309 308 307 307 307 307 309 309 309 311 311 312 312 312 311 311 311 311 310 311 312
Wind_Speed
12 11 11 12 12 9 7 5 5 5 6 9 11 11 10 11 11 12 12 11 10 10 9 8 10 11 12 12 13 13 13 14 15 16 16 16 16 16 16 16 16 17 17 17 17 17 17 17 16 16 16 15 15 15 14 14 15 16 18 19 19 20 21 21 23 24 24 24 23 23 23 22 23 22 22 21 21 21 21 21 20 20 21 21 21
14 13 12 12 12 9 7 6 4 4 7 10 11 11 10 11 11 11 12 13 12 9 7 6 8 9 11 12 13 13 14 15 15 16 16 16 16 16 16 16 16 16 16 16 17 17 17 17 16 17 16 16 15 15 15 14 14 15 16 16 17 19 20 21 22 24 24 22 21 22 22 22 22 22 23 22 22 22 22 22 21 21 21 21 21
15 13 11 12 12 9 8 7 4 4 7 9 10 11 11 11 11 12 12 12 12 10 8 7 8 11 12 12 12 13 13 14 14 15 15 14 15 15 15 16 16 16 17 16 17 17 17 16 16 17 16 15 15 15 15 14 15 15 15 15 17 18 19 20 21 22 22 22 21 22 21 20 20 20 20 21 22 22 22 22 22 21 21 21 21
15 12 11 13 12 10 9 7 4 5 7 9 11 12 11 11 11 12 13 12 12 11 11 10 11 12 12 12 12 12 13 13 13 14 14 14 15 16 16 16 16 16 16 16 16 17 17 17 17 16 15 14 15 15 15 15 16 16 15 16 17 18 19 19 19 19 21 22 20 20 19 18 18 19 19 20 21 21 22 22 22 21 21 20 20
15 12 11 12 10 11 10 7 5 5 6 9 12 12 12 12 12 12 12 12 12 11 11 11 11 12 11 11 11 11 12 13 13 14 15 15 15 16 16 16 15 15 16 16 16 17 17 17 17 15 14 15 15 14 15 15 16 16 17 17 17 17 17 16 16 18 20 21 19 18 18 17 17 18 18 20 21 22 22 22 23 22 21 21 20
14 11 11 11 9 10 10 7 6 6 6 9 12 13 12 13 13 12 13 12 12 11 11 11 11 10 10 10 11 11 10 11 13 14 14 15 15 15 16 15 14 15 16 16 15 16 16 16 16 15 15 15 15 14 15 15 16 17 17 17 16 15 14 15 18 19 19 18 18 17 16 17 17 17 18 19 20 21 21 21 22 22 21 21 20
13 11 11 10 9 10 9 7 6 6 7 10 11 13 13 12 12 12 13 12 12 12 11 11 10 9 10 10 11 11 10 10 11 14 14 14 15 15 15 14 14 14 16 15 15 15 15 15 15 15 15 14 14 14 15 15 15 17 17 15 15 15 16 18 20 20 17 16 16 15 16 17 16 17 18 18 19 20 20 20 21 21 20 20 19
12 10 11 10 9 11 9 8 6 6 9 10 10 13 15 14 13 13 13 12 12 11 10 11 11 11 11 11 11 11 11 11 11 13 14 14 14 15 14 14 14 14 15 15 14 14 14 14 14 13 14 14 14 14 14 14 15 17 16 15 15 17 18 19 19 18 16 16 15 14 15 16 16 17 17 17 18 19 20 21 21 21 20 19 18
13 11 12 11 10 12 10 9 7 7 9 9 9 13 16 15 13 12 12 12 12 10 10 10 11 12 12 12 12 11 10 10 12 14 13 14 14 14 13 13 14 13 14 14 14 14 14 14 13 13 13 14 14 14 14 14 14 16 16 15 16 17 17 18 18 17 15 15 15 15 15 16 16 16 15 15 16 17 18 20 21 20 20 20 19
13 12 12 11 11 12 10 9 7 8 9 9 10 11 14 14 12 11 12 12 12 11 10 11 11 11 11 11 11 10 9 10 13 15 14 14 13 13 13 12 13 13 13 13 13 13 13 12 12 12 13 13 14 14 14 14 14 15 16 15 15 15 16 16 17 15 15 14 15 15 15 16 15 15 14 15 16 17 17 18 19 19 19 19 19
13 12 12 10 12 11 10 9 8 9 10 10 10 10 13 14 12 12 11 11 11 11 10 10 9 9 9 10 11 10 11 14 15 14 14 13 12 12 12 12 13 13 12 12 12 12 12 11 11 12 12 13 13 14 14 13 13 14 15 15 15 14 14 15 15 14 14 14 14 14 15 15 14 14 14 16 17 18 18 18 17 17 17 17 17
13 12 12 11 12 11 10 8 7 9 10 10 10 10 12 13 13 12 11 11 11 10 8 8 8 8 9 9 10 9 12 16 14 13 13 13 12 12 12 12 13 12 10 10 11 11 11 11 12 12 12 12 12 13 13 12 13 13 14 14 14 13 12 14 14 14 14 14 14 14 15 14 14 15 15 16 16 17 17 16 16 16 16 15 15
13 12 12 11 12 11 9 8 7 9 10 10 10 9 10 12 14 13 12 11 11 10 7 7 9 8 9 9 9 10 13 15 14 13 12 12 11 12 12 12 12 11 10 10 11 10 10 10 11 11 11 12 12 12 12 12 12 12 13 13 12 12 13 15 14 13 14 14 14 14 14 14 14 15 14 14 14 15 16 16 16 16 16 15 14
13 13 13 12 11 11 9 8 7 8 9 9 10 9 10 11 13 13 13 12 12 10 8 9 9 8 9 9 9 11 12 12 13 13 12 10 11 11 11 11 10 10 10 10 10 10 9 9 10 10 10 11 11 11 11 11 11 11 11 12 12 12 13 14 13 13 13 13 13 13 13 13 13 13 12 12 12 14 15 15 15 15 15 15 14
14 14 14 13 11 10 9 8 6 8 9 9 9 9 9 10 11 12 12 13 13 11 10 9 9 9 8 8 8 10 10 10 12 13 12 10 10 9 9 10 10 9 9 9 9 9 8 8 9 9 10 10 10 10 10 10 9 10 10 11 12 13 13 12 12 12 12 12 12 12 12 12 12 12 12 11 13 14 14 13 14 14 14 13 13
13 14 14 12 12 11 10 8 7 7 9 9 9 9 8 8 9 10 11 14 13 12 11 9 8 9 7 7 8 9 9 9 10 12 13 10 8 7 8 10 9 8 8 8 8 7 7 7 8 9 9 9 9 9 8 8 8 8 10 11 11 11 14 12 10 10 10 10 10 10 10 11 12 11 11 12 12 13 13 13 13 13 13 12 12
13 14 14 13 12 11 10 9 8 7 8 9 8 8 8 8 8 8 10 13 13 13 12 9 9 9 7 7 8 7 6 6 8 11 13 9 7 6 7 10 9 8 7 7 8 7 7 7 8 8 8 8 8 8 7 7 7 8 9 11 10 10 12 12 9 8 8 8 8 8 8 9 10 10 10 10 10 11 12 13 12 12 12 12 11
13 14 13 13 12 11 10 9 9 8 8 9 8 8 8 7 7 7 9 11 13 13 11 10 9 8 8 7 6 5 4 4 6 10 12 9 8 6 6 8 9 8 7 7 7 6 6 6 7 7 8 8 7 6 6 5 6 7 9 10 10 9 10 10 7 7 8 7 7 6 7 8 8 8 8 8 9 11 11 11 12 12 11 11 12
13 14 14 13 13 12 11 10 10 8 8 8 8 9 8 8 7 7 8 10 12 11 10 9 8 7 7 6 5 4 3 4 5 9 11 9 7 6 5 7 8 8 6 6 5 5 5 5 6 7 7 7 6 6 5 5 5 6 8 8 8 7 8 7 6 7 6 5 5 6 8 9 9 9 9 9 9 10 10 10 11 11 10 11 11
13 15 14 13 13 13 12 12 11 10 10 9 9 9 9 8 8 8 8 8 10 10 9 8 7 6 5 5 4 3 3 3 5 8 10 9 7 6 5 5 6 7 7 5 4 3 3 4 5 6 7 7 7 7 6 5 5 6 6 7 6 5 5 5 5 5 4 4 5 6 8 9 9 9 9 9 9 9 9 9 9 10 10 10 10
13 15 15 14 13 14 13 12 12 11 10 10 9 9 10 10 8 8 8 8 8 8 9 8 7 6 5 4 4 4 4 4 5 7 8 8 7 6 5 5 4 5 6 4 4 3 3 4 5 6 6 7 6 6 6 6 6 6 6 6 4 3 3 4 4 3 4 5 6 8 8 8 8 8 8 8 8 8 8 8 9 9 9 9 9
14 16 16 15 14 14 14 13 13 13 12 10 10 9 10 10 9 9 9 8 8 8 8 8 7 6 5 5 5 5 5 5 5 5 6 8 8 7 6 5 4 4 5 5 3 2 3 4 4 4 5 5 5 4 5 5 6 6 6 5 3 2 3 3 3 3 4 4 6 10 10 7 7 8 7 7 6 7 8 8 8 8 8 8 9
16 16 17 16 15 14 15 15 15 15 14 11 10 10 10 10 9 9 9 9 9 8 8 8 7 7 6 5 6 5 5 5 5 4 5 6 8 8 6 5 5 4 5 6 4 4 4 4 3 3 4 4 4 4 4 4 5 7 6 4 2 3 2 2 3 3 4 4 6 10 10 8 8 7 6 5 5 6 7 7 7 7 7 7 8
17 16 16 16 17 16 15 15 16 15 15 13 12 11 11 10 9 9 9 10 10 9 9 9 8 8 7 6 6 6 5 5 4 3 4 5 7 7 6 5 5 5 5 5 5 7 5 4 4 3 3 3 3 4 4 4 5 6 5 4 3 3 2 2 3 3 4 5 6 9 9 9 7 5 4 4 4 5 5 6 6 6 6 6 6
16 16 16 16 17 17 15 15 16 16 16 14 13 13 12 11 10 10 10 10 12 11 10 10 9 9 8 8 7 6 6 6 5 5 5 6 7 7 6 5 4 5 5 5 5 7 5 4 5 5 5 4 4 4 4 5 5 5 5 4 4 4 2 3 4 4 4 5 6 9 10 9 5 3 4 5 4 4 4 5 5 5 5 5 5
15 16 16 16 16 16 16 15 16 17 17 15 14 14 13 12 11 11 10 10 12 13 12 11 10 10 10 9 8 8 8 8 7 7 7 7 7 7 7 6 5 5 6 6 6 6 6 6 7 7 7 7 6 6 6 6 5 6 6 6 6 6 4 4 5 5 5 5 7 10 11 7 4 4 5 5 4 4 3 4 4 4 4 4 4
15 16 16 15 15 16 16 16 16 17 17 15 14 14 14 12 11 11 11 11 11 13 14 13 13 11 11 10 10 10 9 9 9 9 8 8 8 8 7 7 7 6 7 8 8 8 8 8 9 9 9 9 8 8 8 8 7 7 7 8 8 7 6 6 6 6 6 6 7 10 10 7 6 6 7 6 4 5 4 4 4 4 4 4 5
15 16 16 15 16 16 16 17 17 18 17 17 16 14 13 13 12 12 12 12 11 11 13 15 15 13 12 12 12 11 11 10 10 10 9 9 9 9 8 8 8 8 7 9 10 10 10 10 11 10 10 10 9 9 9 10 10 9 8 9 11 10 8 8 8 8 8 8 9 10 10 9 9 9 8 6 7 7 5 6 6 5 6 5 5
17 17 16 16 17 17 17 17 18 18 16 17 18 16 15 13 14 14 12 13 12 11 11 13 16 16 15 14 14 13 12 12 11 11 10 10 10 10 9 9 9 8 8 9 10 11 12 12 12 11 11 11 11 11 11 12 12 12 10 9 11 10 9 10 10 11 11 10 10 11 12 11 12 12 9 7 9 10 8 9 8 7 8 6 7
19 17 17 16 16 17 18 18 19 18 16 16 19 19 17 15 15 15 13 12 12 12 12 12 15 18 18 16 15 15 14 14 13 12 12 11 11 11 10 10 10 9 9 9 10 11 12 12 12 12 12 12 12 12 12 12 13 13 12 11 10 10 10 11 12 13 13 12 11 12 14 14 14 13 10 8 10 11 9 10 9 8 9 8 8
20 19 19 17 17 18 19 19 19 18 17 17 19 19 18 17 16 15 15 14 12 12 12 12 13 15 19 19 17 17 16 15 15 13 13 13 12 12 12 11 11 11 10 10 10 11 12 13 13 13 13 13 13 13 13 12 13 14 14 13 13 12 12 12 14 15 15 14 14 14 15 17 17 15 13 11 11 13 12 11 11 9 10 10 9
20 20 19 18 18 19 19 19 19 20 20 19 19 19 19 19 17 15 16 16 14 13 12 12 13 13 19 22 19 19 18 17 17 15 14 14 14 14 13 13 13 12 12 12 11 11 12 14 14 14 14 13 14 15 14 13 13 14 15 15 15 15 14 14 16 18 18 17 18 17 16 17 19 18 16 14 12 15 15 13 14 12 12 12 11
19 19 18 18 18 18 19 19 19 21 21 20 18 19 20 21 19 16 17 18 17 15 13 13 13 13 19 22 21 21 20 19 18 17 16 15 15 15 15 15 14 14 13 13 12 12 13 14 15 15 15 15 15 16 16 15 14 15 16 16 16 17 17 17 17 18 20 20 20 21 20 18 19 20 19 17 14 17 17 15 16 15 14 14 13
17 17 19 19 18 17 17 18 19 21 22 22 20 19 20 21 21 18 17 19 18 16 15 14 13 13 16 20 21 22 22 21 20 18 18 17 17 17 16 17 17 16 15 15 14 14 14 15 15 15 16 16 15 16 16 16 16 17 18 18 18 18 19 20 19 20 22 23 22 23 24 22 20 20 20 21 19 19 20 18 18 18 16 16 15
18 17 19 19 18 17 16 16 19 20 21 23 23 22 21 21 22 21 20 21 21 19 17 16 15 15 16 19 21 21 22 22 22 20 20 20 19 19 18 18 18 17 17 17 16 16 16 16 17 16 17 17 16 17 18 16 16 19 20 19 19 20 21 21 22 23 23 25 25 24 26 26 25 22 21 22 22 22 23 22 22 21 19 18 17
21 20 19 19 18 18 17 17 18 18 19 22 23 23 22 22 22 23 23 23 24 23 20 18 17 16 16 18 20 19 20 21 22 22 22 22 23 22 20 18 18 19 19 19 19 19 19 18 19 17 17 19 19 20 21 19 20 22 22 22 22 22 22 23 24 24 25 26 27 26 26 29 30 28 26 25 23 23 25 25 25 24 22 22 20
23 21 20 21 20 19 18 18 18 18 18 19 21 22 22 23 22 23 24 25 26 26 23 21 20 19 17 17 17 18 18 19 21 22 22 22 23 23 22 20 19 20 21 21 21 21 21 20 21 21 19 20 21 22 23 23 24 24 24 24 24 24 24 25 25 25 27 28 29 28 28 29 31 31 31 30 28 27 27 27 28 27 26 25 23
24 23 23 23 22 20 19 19 19 18 18 18 19 21 21 22 23 23 24 25 27 28 26 25 24 24 23 19 17 18 19 19 20 21 23 24 23 23 23 23 22 22 23 24 23 22 22 22 23 23 23 22 21 21 21 21 24 26 25 25 26 27 26 26 27 27 28 29 31 32 31 31 32 33 34 34 34 32 31 30 30 30 30 29 26
26 26 25 24 23 22 20 18 19 19 19 18 18 20 20 22 23 23 24 25 27 28 28 27 26 26 26 25 23 20 20 21 22 23 23 24 27 28 26 25 25 26 27 27 26 25 24 24 25 25 26 26 23 20 19 20 24 26 26 26 27 29 29 28 29 30 30 31 32 34 34 34 34 35 35 36 36 36 34 33 33 33 33 32 31
26 26 25 26 26 24 21 19 18 18 19 18 19 20 21 22 23 23 25 26 26 27 27 26 26 27 27 27 26 23 22 23 23 26 26 24 26 30 30 29 29 30 31 30 29 28 28 27 27 28 28 28 27 25 24 23 24 24 25 27 28 29 31 31 32 32 32 34 34 35 36 36 37 37 37 37 38 38 38 37 36 36 37 36 35
22 23 24 26 27 25 23 22 20 17 19 20 20 21 22 23 23 24 25 24 24 25 26 26 26 26 26 27 27 24 26 27 26 29 31 28 27 29 31 32 32 32 32 33 31 30 31 30 29 30 29 29 30 30 29 26 20 19 19 23 28 30 32 34 34 35 35 36 37 38 38 38 39 40 40 39 40 40 41 40 40 40 41 40 39
17 20 22 24 25 25 25 25 22 19 20 21 21 21 21 21 21 21 21 20 20 22 24 26 27 27 27 28 28 26 25 27 29 30 31 31 30 31 31 31 32 33 34 35 34 33 34 33 31 31 30 30 30 30 29 24 18 16 13 12 18 24 29 33 35 37 38 39 39 40 41 41 42 42 41 41 41 42 43 43 43 43 43 43 42
16 17 19 20 22 24 26 25 24 23 21 20 21 22 20 20 19 18 17 17 17 19 21 23 24 25 25 26 27 27 26 25 25 25 26 27 28 28 28 29 31 33 35 35 35 36 36 34 33 33 31 29 29 29 30 27 20 15 9 5 7 9 14 20 25 34 38 39 42 43 44 44 44 44 43 43 44 44 45 44 45 45 45 45 45
16 18 18 19 20 22 24 24 24 25 23 21 20 20 18 18 18 17 16 16 17 18 19 20 22 23 24 25 25 25 26 27 27 26 25 27 28 27 26 27 29 33 36 36 36 37 37 36 34 35 32 27 27 29 32 32 27 17 7 3 2 2 6 9 12 22 28 32 38 42 44 45 46 46 45 45 46 46 47 46 45 47 48 48 46
15 17 18 20 20 21 22 23 24 25 25 23 19 17 17 17 17 18 19 19 20 21 20 21 21 23 24 25 25 25 25 26 28 29 29 31 33 32 31 30 30 32 34 36 38 38 37 37 35 36 35 32 32 31 30 31 33 29 18 8 3 2 5 6 7 12 15 22 28 32 37 40 42 44 45 47 47 47 48 48 47 48 49 49 47
13 14 15 17 19 19 20 20 22 23 24 23 19 15 16 17 17 18 19 20 20 22 22 21 21 22 23 24 24 25 25 25 26 28 30 31 32 32 34 35 34 34 32 32 36 38 38 37 36 36 37 36 35 27 25 29 32 33 32 24 18 14 9 4 2 6 9 15 20 23 27 30 35 39 42 46 47 47 49 49 49 49 49 49 49
9 10 11 14 16 17 17 17 19 19 19 21 18 14 15 17 17 17 18 18 19 19 19 18 18 19 19 20 21 22 24 26 27 27 29 29 29 30 31 33 34 34 32 32 36 38 37 35 35 37 38 37 35 26 22 26 27 29 36 37 35 32 25 13 5 6 8 10 14 19 22 23 28 32 36 39 43 45 48 49 50 50 50 51 51
6 7 8 10 12 13 14 14 14 15 15 16 15 14 14 15 15 16 17 18 18 17 16 16 17 17 17 17 17 19 21 24 26 26 28 29 30 31 31 32 32 32 33 35 38 38 36 36 36 38 38 35 34 33 30 28 25 27 32 36 38 39 36 30 24 16 8 7 11 16 21 24 27 30 32 34 37 41 43 45 47 48 50 51 51
8 8 8 8 9 10 10 10 10 10 11 11 11 12 13 13 14 15 16 17 18 17 17 18 18 18 19 19 18 19 20 22 25 25 27 29 30 30 30 30 31 31 34 36 37 35 34 35 35 36 37 36 35 37 37 33 29 28 28 29 32 33 32 32 34 27 15 11 11 11 16 19 23 29 33 34 36 38 40 42 43 45 47 49 51
10 10 9 8 9 9 9 8 8 7 8 9 9 10 11 12 13 14 14 15 15 16 18 20 20 20 21 20 19 20 20 21 23 23 24 26 27 28 29 30 30 30 32 32 34 34 33 33 34 35 38 39 38 37 38 38 34 31 29 26 25 23 19 18 23 25 19 16 14 13 15 16 17 22 31 36 38 38 39 40 40 42 45 47 49
13 13 12 12 11 10 9 8 7 7 6 7 9 9 10 11 12 11 12 13 12 12 14 17 19 20 21 21 20 20 20 21 22 23 24 24 25 26 27 29 29 29 29 28 29 30 32 33 34 36 38 38 39 37 38 39 36 31 30 29 28 25 21 20 22 21 17 14 13 13 16 19 19 22 28 34 36 36 36 37 39 41 42 44 45
Wind_Direction
155 153 151 150 134 129 122 112 85 76 80 99 105 99 99 95 103 108 110 112 99 95 104 101 95 98 98 97 97 97 97 95 94 90 87 84 81 80 79 75 74 75 74 73 74 76 79 79 79 75 78 80 79 81 79 82 84 87 91 92 92 92 93 93 91 87 84 81 80 79 78 79 79 81 83 87 90 89 87 85 81 79 80 81 80
154 153 151 148 133 127 122 114 94 89 90 101 108 104 105 99 101 104 106 113 107 106 116 104 98 103 101 100 99 96 95 92 90 88 86 84 83 80 78 77 77 77 74 72 75 79 81 80 82 80 79 81 81 81 81 82 87 91 92 91 91 93 94 94 95 92 88 85 83 82 81 82 82 82 82 84 87 89 90 88 87 84 85 89 88
149 150 151 151 137 134 126 119 112 101 108 109 110 110 110 104 105 108 105 107 108 108 110 105 103 105 102 100 98 96 94 94 94 94 92 90 87 82 81 81 79 78 77 76 77 81 82 82 85 83 78 81 81 80 82 84 92 97 96 93 94 96 96 96 96 93 91 87 84 84 84 86 86 85 85 86 88 91 93 93 92 89 91 95 94
147 149 154 155 144 143 131 128 127 107 122 123 119 116 111 110 106 106 107 109 110 101 100 100 96 98 98 96 95 96 98 97 97 97 95 92 89 86 85 83 81 80 80 80 79 81 83 84 87 87 83 83 82 83 84 89 97 99 99 99 99 99 99 97 95 94 93 88 84 82 82 84 86 85 87 90 92 94 93 92 92 90 92 94 93
147 150 157 154 150 153 143 138 130 113 118 126 127 120 113 114 110 107 109 110 110 102 99 99 98 101 99 97 98 98 98 96 95 94 91 89 89 87 86 85 85 83 81 82 81 83 85 86 87 88 88 87 86 87 88 93 99 101 102 104 103 102 101 100 100 100 96 91 88 85 84 85 86 87 89 93 93 90 89 88 87 86 85 86 86
148 152 154 152 153 159 150 135 122 120 114 123 127 121 117 114 112 112 112 111 109 105 104 102 102 103 98 98 100 100 99 97 96 95 92 91 91 89 87 86 88 86 84 84 84 85 88 90 89 88 88 89 89 89 92 95 99 103 106 106 107 108 107 108 106 100 93 88 86 85 87 88 88 91 93 96 94 88 86 86 84 81 79 80 80
150 152 151 151 151 157 149 130 119 124 117 122 129 129 126 118 116 115 114 113 108 107 109 109 105 101 99 98 94 92 91 94 99 99 97 96 95 92 90 90 93 91 88 87 87 88 90 92 92 91 90 91 92 92 95 96 101 108 110 109 111 113 112 111 105 94 88 85 84 84 85 88 89 91 92 92 93 92 89 86 83 81 80 81 80
154 152 152 151 152 160 147 130 127 130 117 115 128 135 131 123 118 117 117 114 112 113 114 118 114 107 102 97 90 86 86 90 98 102 101 100 98 95 93 94 95 94 92 91 91 92 93 94 94 94 94 94 95 96 96 97 106 111 113 113 113 114 113 109 97 87 87 86 85 84 84 87 89 91 90 86 88 90 88 85 82 81 83 85 85
155 153 154 152 158 163 143 131 136 130 118 114 124 132 131 123 118 120 121 117 115 109 103 107 107 104 101 96 92 90 90 95 103 108 107 103 100 97 95 96 98 97 95 94 95 95 97 98 95 95 97 99 99 99 98 100 106 110 115 117 115 115 113 104 92 85 85 87 87 85 85 87 85 85 87 85 87 91 90 87 83 83 84 85 86
153 153 154 152 161 161 141 135 141 130 121 123 125 130 133 124 117 118 121 119 114 108 101 100 99 96 94 93 91 88 87 99 107 110 110 105 102 99 97 101 102 99 96 98 101 98 96 97 94 95 99 101 103 103 102 103 107 114 121 122 119 117 114 101 89 87 87 88 88 86 88 87 84 83 85 84 86 89 89 89 88 88 86 83 83
155 156 155 154 162 158 143 140 144 136 126 128 130 134 136 130 124 120 121 118 114 114 112 108 101 92 90 90 92 92 91 100 106 107 109 107 104 100 100 105 102 100 102 103 102 96 96 98 96 99 103 105 106 107 105 106 113 121 127 125 122 121 115 98 87 88 89 90 90 90 89 87 87 84 82 82 82 82 81 82 84 86 87 86 82
159 160 161 160 162 155 145 148 149 140 130 129 131 134 135 134 130 124 123 121 115 115 119 111 96 95 97 91 100 109 99 102 107 107 110 108 105 101 101 105 103 103 105 102 97 95 99 101 99 101 106 109 110 110 109 111 118 125 130 128 123 122 112 96 90 92 92 93 94 91 89 88 91 87 83 85 85 84 83 82 81 82 85 86 81
163 164 165 162 164 158 151 157 154 143 134 129 127 131 135 136 133 128 126 124 118 114 112 104 105 112 103 94 111 117 103 104 109 110 110 110 106 101 102 105 105 103 102 101 99 102 103 101 101 104 111 114 114 114 114 115 122 129 132 129 124 124 111 96 93 95 94 95 96 94 91 91 94 92 87 89 90 89 92 91 86 85 86 89 86
168 168 165 160 168 167 161 164 157 148 137 129 127 131 136 137 135 133 134 134 131 123 114 112 119 118 109 109 116 115 106 102 107 114 113 111 112 106 106 107 108 110 108 106 105 106 102 101 105 109 117 118 119 119 120 121 127 132 132 130 127 121 106 96 95 97 97 94 95 95 92 93 98 99 93 93 96 94 97 95 91 90 89 91 90
172 169 166 162 170 175 170 168 166 157 145 137 133 133 136 137 137 137 142 145 142 132 122 122 121 115 125 131 117 110 107 97 98 114 116 116 124 114 107 108 111 114 111 111 111 109 102 105 111 113 120 123 125 127 128 128 130 133 132 130 129 119 104 96 99 99 99 97 96 94 93 96 99 101 100 99 101 98 95 94 95 95 94 93 91
177 170 168 165 168 177 176 175 178 168 154 146 139 137 136 138 140 141 148 150 148 141 131 133 130 125 135 130 117 110 107 100 92 112 119 117 135 130 115 112 111 115 116 121 119 112 109 112 115 118 123 125 128 133 137 134 132 135 133 130 128 120 109 104 101 99 101 101 100 96 96 101 98 98 103 104 103 101 99 99 100 100 99 97 96
179 171 170 170 170 177 179 182 185 176 163 155 147 143 140 142 143 143 152 154 153 147 141 143 141 135 135 126 126 120 113 107 91 114 125 121 140 149 131 119 112 114 117 122 119 114 116 116 118 122 125 127 131 137 140 138 140 139 138 133 123 114 109 106 100 102 106 104 104 101 105 111 106 102 105 104 104 107 108 108 106 104 103 101 101
180 176 174 173 174 179 178 185 188 179 173 165 158 154 147 149 150 148 156 159 158 155 149 147 145 140 139 138 140 135 127 114 96 120 134 134 141 150 146 134 122 116 115 121 124 123 120 117 120 126 130 133 137 140 139 142 143 141 144 135 120 112 105 102 100 108 107 102 101 101 113 121 116 112 111 108 109 111 112 112 110 108 106 106 107
181 179 181 180 179 181 181 186 186 180 179 174 172 170 162 160 161 159 160 162 164 165 156 149 153 151 145 148 152 148 135 116 98 119 141 147 145 153 160 149 137 130 132 133 136 135 129 126 127 136 140 140 140 140 141 145 149 150 148 137 126 113 97 97 106 112 108 104 101 105 126 128 121 119 116 114 114 111 111 112 111 111 110 111 111
182 182 185 186 183 184 186 187 186 186 182 181 181 178 175 170 170 169 167 167 169 171 165 156 158 159 154 154 151 142 130 119 98 114 146 160 155 163 171 171 163 149 146 148 153 151 142 136 134 145 151 149 149 149 151 153 159 163 158 150 133 103 93 106 113 113 113 114 110 122 139 132 121 119 117 118 119 115 113 114 113 112 113 115 115
184 186 188 188 188 188 189 189 189 189 185 185 184 184 183 178 179 179 176 175 174 175 175 170 167 168 166 160 147 137 128 124 113 113 147 175 176 179 186 191 192 162 152 160 167 162 144 138 140 149 155 156 154 155 160 164 166 164 167 160 126 99 121 127 119 118 125 125 121 134 137 123 118 120 122 121 118 119 117 117 117 117 118 119 119
186 188 190 190 190 190 191 193 193 190 188 187 186 189 187 182 186 188 185 184 180 179 182 182 181 179 177 174 158 152 144 139 141 122 143 183 194 200 202 198 203 185 168 174 179 165 149 151 154 148 145 149 147 151 168 175 174 170 171 158 127 140 157 145 144 144 142 134 136 144 138 123 120 119 123 124 119 124 122 120 121 122 125 123 122
188 189 191 192 191 191 192 194 196 192 191 191 190 191 188 185 190 192 192 190 186 186 189 191 193 192 188 182 173 175 169 159 169 154 150 183 203 212 215 208 208 208 189 184 185 170 169 175 160 134 132 142 148 155 172 179 181 179 174 163 162 180 179 175 167 161 156 145 150 155 150 143 133 120 126 131 128 134 131 130 131 129 131 129 127
190 190 191 193 193 193 193 195 197 194 193 195 194 193 191 190 193 195 196 196 194 193 195 197 198 200 196 188 190 198 190 183 198 192 161 175 202 220 227 226 222 225 202 185 190 190 197 190 150 137 150 163 173 174 176 181 187 186 188 194 195 191 190 196 183 175 170 160 162 161 156 154 143 130 149 153 146 148 142 140 140 137 136 135 132
190 192 194 194 194 194 195 196 197 196 197 197 198 197 194 193 197 198 198 202 202 199 200 204 204 203 201 201 206 211 200 198 205 198 183 178 195 214 221 215 206 218 205 182 192 201 206 188 167 178 190 191 192 191 187 189 196 198 205 210 206 206 206 211 202 194 188 177 172 166 162 158 149 145 162 162 160 162 156 146 146 146 144 143 145
193 195 197 197 197 197 196 198 198 199 201 200 202 202 199 197 200 200 200 205 208 207 205 206 210 208 207 210 214 216 209 207 208 204 200 196 198 204 212 213 210 216 206 192 196 202 197 189 193 201 205 207 206 208 205 199 202 206 212 214 214 218 221 219 210 206 202 191 185 181 175 168 163 173 170 164 172 182 181 170 159 157 158 160 161
198 199 200 200 200 199 199 201 201 202 203 204 206 207 205 202 204 203 202 206 209 210 211 210 213 213 213 215 216 218 216 214 216 215 213 209 207 209 214 221 225 225 213 207 211 211 203 199 208 214 215 216 216 220 221 216 213 213 218 224 226 227 227 223 214 211 208 203 200 196 197 195 185 186 183 183 208 210 197 188 183 186 186 184 179
203 203 201 203 203 202 201 203 205 204 204 206 210 211 210 208 209 209 206 209 209 209 214 215 216 216 217 218 218 220 220 220 222 223 222 216 216 220 221 223 226 228 221 216 219 217 212 213 217 221 223 224 227 228 230 227 225 225 227 232 236 234 228 223 217 214 213 212 210 208 213 214 204 202 205 211 211 202 204 204 199 203 198 196 196
208 206 203 206 206 204 204 205 207 207 206 208 211 213 214 211 213 215 211 213 212 211 216 217 219 220 220 220 220 222 222 224 227 228 228 224 226 230 228 228 231 235 230 223 222 218 218 221 222 224 227 230 233 234 235 234 231 232 233 234 238 234 229 226 222 218 217 218 218 217 218 217 217 217 222 224 208 202 210 209 201 201 200 203 207
213 211 209 210 208 207 207 208 209 209 209 209 212 215 217 215 215 219 215 215 215 215 217 216 220 223 223 224 222 225 227 229 232 233 235 233 235 238 235 234 238 241 238 234 230 222 222 224 225 227 231 234 236 237 237 236 237 237 238 238 237 234 232 230 225 223 223 222 222 223 222 221 223 224 227 230 217 213 212 205 201 202 205 208 210
214 214 214 213 210 209 209 211 212 212 211 212 215 216 218 219 217 219 220 219 216 216 218 218 220 222 224 226 225 227 230 232 235 237 238 240 242 242 239 240 243 245 242 242 241 232 227 228 230 230 232 234 238 242 238 236 240 241 242 243 242 238 235 233 232 231 227 224 224 225 226 227 229 231 235 241 229 218 218 216 214 215 217 213 213
213 215 215 214 214 213 211 213 214 215 215 215 218 218 220 223 220 220 225 224 221 218 219 220 220 221 224 226 226 229 232 234 237 239 241 242 246 245 245 245 246 249 248 247 249 243 238 237 236 235 236 237 240 244 241 238 240 243 246 247 247 244 239 237 236 235 232 229 231 230 230 230 232 235 238 244 234 222 225 226 222 225 227 221 219
212 215 216 216 215 216 215 215 215 217 219 218 220 223 223 226 224 223 225 227 227 223 221 223 224 224 227 226 226 229 232 236 239 241 243 243 247 247 250 251 250 252 253 252 252 249 246 244 244 241 240 240 241 245 243 241 241 245 250 250 248 247 244 242 239 237 235 236 240 240 236 232 232 235 238 242 236 224 226 227 226 228 229 227 226
205 210 214 216 214 214 215 217 217 217 220 220 221 226 226 227 228 226 224 226 228 225 225 225 224 226 230 230 228 229 231 235 239 242 244 245 248 249 250 251 252 255 255 254 252 249 248 247 247 244 243 243 241 243 244 241 243 247 251 252 250 248 247 245 241 238 237 239 244 246 241 235 234 236 237 241 241 231 226 225 227 230 230 229 230
203 206 210 213 214 216 215 217 220 218 220 221 222 225 227 229 230 230 230 229 227 228 230 230 232 235 238 240 238 235 233 233 237 241 244 245 246 248 250 251 255 257 256 253 250 248 248 248 248 244 243 246 241 242 245 240 241 247 250 251 251 250 249 247 243 241 239 240 245 248 244 239 237 236 236 240 243 239 232 227 226 230 230 228 229
212 211 210 212 215 219 219 221 223 221 222 224 225 226 228 231 232 234 236 238 236 235 235 233 236 238 243 251 253 251 245 240 238 239 244 248 248 249 249 253 258 259 256 254 250 248 249 248 250 247 243 248 247 248 251 246 245 250 250 249 250 250 250 247 244 243 242 243 245 248 247 243 241 240 241 242 240 240 237 232 229 230 229 227 228
222 218 217 218 217 219 223 225 226 225 226 226 228 228 228 231 234 236 239 242 244 243 242 239 239 242 247 251 253 259 258 253 250 245 244 249 255 256 252 250 254 257 256 256 253 250 251 250 251 250 245 247 250 251 252 250 249 251 250 250 250 251 250 248 246 245 244 245 246 248 248 247 246 246 246 245 241 241 241 237 232 232 233 231 229
231 228 227 227 224 221 223 227 229 228 228 229 230 231 231 232 234 237 240 243 245 245 246 246 244 246 251 250 251 259 258 255 258 255 250 248 252 255 253 248 247 249 252 254 253 250 251 251 251 253 250 245 246 248 248 249 250 252 252 252 252 252 251 248 247 247 246 246 246 247 248 248 249 248 248 246 244 244 243 239 235 233 235 235 232
237 236 233 232 230 226 223 227 230 229 230 232 233 234 236 236 237 238 240 243 245 244 244 246 246 246 249 248 250 257 256 253 254 253 251 248 248 248 246 246 244 242 245 247 247 246 246 248 248 250 250 246 243 245 245 246 251 254 254 254 255 255 253 250 249 249 248 247 248 248 248 249 249 249 248 248 247 245 244 241 237 234 235 236 235
241 240 236 234 233 230 225 224 228 229 228 230 232 234 235 237 237 238 238 240 242 244 242 242 242 243 245 246 248 254 254 252 252 250 247 248 252 249 243 244 242 238 240 241 243 245 246 247 247 246 246 246 244 244 246 247 251 256 257 256 256 256 256 254 253 253 251 250 249 249 249 249 250 249 248 248 248 247 245 243 240 237 236 236 236
241 237 235 235 234 230 227 225 224 224 225 226 228 229 229 231 233 235 237 239 241 243 244 242 242 244 249 250 249 253 251 247 248 248 245 245 250 248 243 245 247 243 242 244 245 246 247 245 244 243 242 243 245 247 247 246 249 256 259 261 261 260 260 258 256 255 254 253 251 250 250 250 249 249 249 248 249 248 247 245 243 241 239 238 238
237 235 234 235 233 230 229 228 224 222 224 224 226 227 227 226 229 233 236 240 242 243 245 246 246 248 251 251 250 255 257 252 250 248 246 246 249 249 247 248 251 249 247 247 246 246 246 245 242 240 240 242 246 249 247 241 239 244 252 272 273 268 265 263 260 258 256 254 253 252 251 250 250 249 249 248 249 249 248 246 245 243 241 240 240
238 238 237 234 232 231 232 230 225 223 223 223 225 228 228 227 230 235 237 241 243 243 246 247 248 247 245 246 249 254 259 258 256 255 253 251 253 254 252 251 254 253 249 246 245 245 245 244 242 240 239 241 244 247 247 240 234 234 240 263 274 278 269 259 257 260 259 256 253 253 252 252 252 251 249 249 248 248 248 247 246 245 244 242 241
237 237 236 232 231 233 233 230 228 227 225 223 224 226 229 230 233 236 237 240 243 245 249 248 247 248 248 248 248 247 249 251 250 251 253 252 250 249 248 251 255 256 251 245 244 244 244 244 243 240 236 234 237 243 246 242 233 225 214 221 242 287 264 253 260 264 262 257 254 253 254 254 254 252 251 251 250 250 250 249 248 247 246 245 243
233 234 234 231 230 231 233 232 232 233 231 228 225 224 226 228 231 235 237 240 245 248 249 247 244 246 248 250 252 250 247 248 246 247 250 250 247 244 244 249 253 256 253 247 245 246 247 247 245 241 235 232 236 240 244 243 237 230 220 209 218 246 248 260 284 275 258 252 254 256 257 258 258 256 253 252 252 252 252 251 250 249 248 247 246
230 230 229 227 227 228 230 231 232 234 234 230 225 221 221 223 225 228 231 233 240 244 244 244 245 246 247 248 251 252 251 253 254 256 257 254 251 248 247 249 249 251 252 251 250 247 245 245 244 241 239 239 239 236 237 241 241 236 229 227 234 246 257 268 288 280 262 252 257 260 260 262 262 259 256 255 254 254 253 253 252 251 251 250 249
218 221 221 219 218 220 222 224 227 229 232 230 223 216 217 220 220 224 227 228 234 241 242 244 246 247 249 249 250 251 252 254 254 255 256 255 257 258 256 254 252 251 252 253 251 244 241 246 248 246 244 243 239 231 229 235 237 236 235 234 237 243 251 255 250 275 282 264 258 264 267 267 264 261 258 256 256 256 255 255 255 254 253 252 250
176 189 197 201 204 209 211 214 219 224 228 226 216 210 214 217 219 225 230 232 236 241 244 245 245 246 249 251 254 255 255 255 252 250 252 256 259 258 257 256 255 255 256 256 254 249 248 252 251 247 244 242 240 238 235 233 232 235 237 236 238 241 244 247 250 255 271 281 273 270 269 268 266 264 262 261 260 259 259 259 259 258 255 253 252
124 142 158 171 178 184 190 196 204 212 218 215 208 208 213 215 218 224 229 234 237 241 243 245 248 252 255 255 257 256 256 258 257 255 254 256 258 256 253 252 253 254 253 253 253 250 248 249 247 244 243 243 246 244 240 236 234 236 236 235 237 240 242 246 248 247 248 261 270 271 266 265 264 263 264 265 264 263 264 264 262 260 257 255 254
104 113 125 135 144 152 158 168 181 193 201 202 202 206 210 213 218 223 229 235 239 244 248 250 252 255 258 258 259 259 258 260 261 261 259 257 256 257 258 258 259 259 256 253 251 248 248 252 253 250 247 248 249 247 242 239 238 240 239 236 234 232 232 239 241 238 239 246 256 267 266 262 262 263 265 266 266 267 267 265 264 262 259 258 258
98 101 107 111 115 121 127 138 153 165 178 190 199 206 212 216 220 226 233 239 245 250 253 255 256 257 259 261 262 263 263 262 263 264 263 262 260 258 258 259 260 261 259 256 254 254 258 260 256 251 249 249 250 248 243 240 241 243 242 239 238 234 231 236 235 228 225 232 247 265 263 257 256 260 264 266 267 267 266 265 264 263 262 261 261